KG6SIB Weather Reports


time (UTC)temp
F
wind
direction
speed
knots
gust
knots
rain 1hr
in
rain 24hr
in
rain mn
in
humidity
%
barometer
mb
20260502214631 80 236 0.0 12.2 0.00 0.00 0.00 44 1014.7
20260502213631 80 202 2.6 11.3 0.00 0.00 0.00 41 1014.6
20260502213130 80 186 3.5 11.3 0.00 0.00 0.00 39 1014.5
20260502212630 81 261 8.7 8.7 0.00 0.00 0.00 40 1014.7
20260502212130 80 180 2.6 8.7 0.00 0.00 0.00 39 1014.5
20260502210630 81 232 2.6 9.6 0.00 0.00 0.00 35 1014.3
20260502210130 81 70 2.6 5.2 0.00 0.00 0.00 34 1014.2
20260502205630 81 224 1.7 6.1 0.00 0.00 0.00 40 1014.4
20260502205130 81 205 1.7 7.0 0.00 0.00 0.00 40 1014.4
20260502204630 80 269 0.9 7.8 0.00 0.00 0.00 39 1014.4
20260502204130 80 261 5.2 7.8 0.00 0.00 0.00 34 1014.5
20260502203630 80 244 1.7 5.2 0.00 0.00 0.00 38 1014.7
20260502203130 80 193 0.0 8.7 0.00 0.00 0.00 39 1014.6
20260502202630 80 261 2.6 8.7 0.00 0.00 0.00 38 1014.7
20260502202130 80 240 0.9 7.8 0.00 0.00 0.00 42 1014.8
20260502201630 79 240 1.7 8.7 0.00 0.00 0.00 43 1014.5
20260502200630 79 234 2.6 9.6 0.00 0.00 0.00 41 1014.6
20260502195629 79 242 0.0 10.4 0.00 0.00 0.00 39 1014.7
20260502195129 79 251 0.9 10.4 0.00 0.00 0.00 39 1014.8
20260502194630 79 246 6.1 9.6 0.00 0.00 0.00 41 1014.7
20260502194130 79 229 4.3 9.6 0.00 0.00 0.00 41 1014.6
20260502193629 80 234 2.6 8.7 0.00 0.00 0.00 40 1014.8
20260502193129 81 229 5.2 7.8 0.00 0.00 0.00 39 1014.9
20260502192630 81 238 3.5 7.8 0.00 0.00 0.00 33 1014.9
20260502192129 82 216 0.0 8.7 0.00 0.00 0.00 37 1015.2
20260502191630 82 315 3.5 9.6 0.00 0.00 0.00 36 1015.1
20260502191129 82 198 5.2 10.4 0.00 0.00 0.00 37 1015.2
20260502190629 81 242 7.0 10.4 0.00 0.00 0.00 36 1014.9
20260502190129 81 233 3.5 7.0 0.00 0.00 0.00 39 1015.0
20260502185629 80 252 3.5 8.7 0.00 0.00 0.00 35 1014.9
20260502185129 80 246 3.5 8.7 0.00 0.00 0.00 36 1015.0
20260502184129 79 228 2.6 9.6 0.00 0.00 0.00 39 1014.9
20260502183629 79 236 1.7 9.6 0.00 0.00 0.00 37 1014.8
20260502182629 79 188 1.7 7.0 0.00 0.00 0.00 38 1015.1
20260502182129 79 223 3.5 7.0 0.00 0.00 0.00 40 1015.1
20260502181629 78 232 3.5 7.0 0.00 0.00 0.00 39 1015.1
20260502180629 78 193 2.6 8.7 0.00 0.00 0.00 40 1015.3
20260502180129 77 228 0.9 8.7 0.00 0.00 0.00 43 1015.3
20260502170128 78 214 4.3 7.8 0.00 0.00 0.00 37 1015.5
20260502164128 77 202 2.6 5.2 0.00 0.00 0.00 39 1015.7
20260502163628 78 178 3.5 5.2 0.00 0.00 0.00 35 1016.0
20260502163128 78 175 1.7 6.1 0.00 0.00 0.00 34 1015.9
20260502162629 79 142 3.5 11.3 0.00 0.00 0.00 33 1015.9
20260502162127 79 86 2.6 11.3 0.00 0.00 0.00 24 1015.7
20260502161127 79 105 8.7 10.4 0.00 0.00 0.00 22 1015.5
20260502160627 79 15 7.0 9.6 0.00 0.00 0.00 25 1015.7
20260502160128 79 90 3.5 10.4 0.00 0.00 0.00 25 1015.7
20260502152127 74 38 6.1 11.3 0.00 0.00 0.00 29 1015.4
20260502150627 71 80 7.0 11.3 0.00 0.00 0.00 34 1015.1
20260502150127 70 65 3.5 11.3 0.00 0.00 0.00 36 1014.9
20260502140126 53 48 1.7 3.5 0.00 0.00 0.00 66 1013.6
20260502130625 48 78 4.3 5.2 0.00 0.00 0.00 67 1013.5
20260502130125 48 53 3.5 6.1 0.00 0.00 0.00 68 1013.5
20260502123625 49 41 4.3 7.0 0.00 0.00 0.00 66 1014.0
20260502123125 49 46 4.3 7.0 0.00 0.00 0.00 65 1014.0
20260502122625 49 71 5.2 7.0 0.00 0.00 0.00 65 1013.9
20260502121625 49 44 2.6 7.0 0.00 0.00 0.00 65 1013.9
20260502121125 49 59 3.5 7.0 0.00 0.00 0.00 65 1014.0
20260502120625 49 73 4.3 7.0 0.00 0.00 0.00 65 1014.0
20260502120125 49 76 6.1 7.0 0.00 0.00 0.00 65 1013.9
20260502115625 49 55 4.3 6.1 0.00 0.00 0.00 65 1014.6
20260502114124 49 84 3.5 7.0 0.00 0.00 0.00 65 1014.6
20260502113624 49 70 4.3 7.0 0.00 0.00 0.00 65 1014.7
20260502113125 49 68 4.3 6.1 0.00 0.00 0.00 64 1014.6
20260502112625 49 79 3.5 6.1 0.00 0.00 0.00 64 1014.7
20260502111624 49 46 4.3 7.8 0.00 0.00 0.00 64 1014.6
20260502111124 50 51 3.5 7.8 0.00 0.00 0.00 63 1014.6
20260502110624 50 60 3.5 7.0 0.00 0.00 0.00 62 1014.5
20260502110124 50 48 6.1 7.0 0.00 0.00 0.00 61 1014.4
20260502105624 50 37 4.3 8.7 0.00 0.00 0.00 62 1015.0
20260502105124 50 67 4.3 8.7 0.00 0.00 0.00 62 1015.1
20260502104124 50 58 4.3 7.8 0.00 0.00 0.00 62 1015.1
20260502103624 50 55 7.8 7.8 0.00 0.00 0.00 62 1015.1
20260502103124 50 80 4.3 6.1 0.00 0.00 0.00 63 1015.1
20260502102624 49 42 4.3 7.0 0.00 0.00 0.00 63 1014.8
20260502102123 50 73 3.5 7.0 0.00 0.00 0.00 63 1015.1
20260502101623 50 53 4.3 7.0 0.00 0.00 0.00 63 1015.1
20260502101123 50 80 4.3 7.0 0.00 0.00 0.00 63 1015.1
20260502100624 50 82 3.5 7.8 0.00 0.00 0.00 63 1015.1
20260502100123 50 60 4.3 7.8 0.00 0.00 0.00 62 1015.1
20260502091122 50 71 2.6 7.0 0.00 0.00 0.00 64 1015.3
20260502090123 50 71 2.6 7.8 0.00 0.00 0.00 64 1015.5
20260502071122 50 83 3.5 7.0 0.00 0.00 0.00 66 1015.7
20260502070621 50 15 4.3 7.0 0.00 0.00 0.00 66 1015.7
20260502070151 50 52 3.5 7.0 0.00 0.00 0.00 66 1015.7
20260502065622 50 62 5.2 7.0 0.00 0.00 0.00 66 1015.7
20260502065121 50 71 4.3 6.1 0.00 0.00 0.00 66 1015.7
20260502064621 50 57 4.3 6.1 0.00 0.00 0.00 66 1015.6
20260502064121 50 50 3.5 6.1 0.00 0.00 0.00 66 1015.6
20260502063621 50 64 4.3 6.1 0.00 0.00 0.00 66 1015.6
20260502062621 50 65 3.5 5.2 0.00 0.00 0.00 66 1015.7
20260502062121 51 59 5.2 6.1 0.00 0.00 0.00 66 1015.9
20260502061621 51 57 3.5 6.1 0.00 0.00 0.00 66 1015.9
20260502060620 51 49 4.3 6.1 0.00 0.00 0.00 65 1015.8
20260502060121 51 51 3.5 6.1 0.00 0.00 0.00 65 1015.8
20260502055620 52 62 3.5 7.0 0.00 0.00 0.00 65 1015.5
20260502055120 52 61 3.5 7.0 0.00 0.00 0.00 65 1015.5
20260502054620 52 78 4.3 6.1 0.00 0.00 0.00 66 1015.4
20260502054121 52 32 3.5 7.0 0.00 0.00 0.00 65 1015.4
20260502053620 52 53 4.3 7.8 0.00 0.00 0.00 66 1015.5
20260502053121 52 88 3.5 7.8 0.00 0.00 0.00 66 1015.5
20260502052620 52 48 3.5 5.2 0.00 0.00 0.00 67 1015.5
20260502052120 52 46 2.6 7.0 0.00 0.00 0.00 68 1015.5
20260502051620 52 22 4.3 7.0 0.00 0.00 0.00 68 1015.6
20260502051120 52 32 3.5 6.1 0.00 0.00 0.00 70 1015.6
20260502050620 52 27 2.6 6.1 0.00 0.00 0.00 71 1015.5
20260502050150 52 57 3.5 6.1 0.00 0.00 0.00 71 1015.6
20260502045620 53 24 3.5 6.1 0.00 0.00 0.00 72 1015.6
20260502044619 52 67 2.6 5.2 0.00 0.00 0.00 75 1015.5
20260502044120 52 69 3.5 6.1 0.00 0.00 0.00 76 1015.3
20260502043120 52 45 4.3 5.2 0.00 0.00 0.00 79 1015.4
20260502042620 52 42 4.3 5.2 0.00 0.00 0.00 79 1015.4
20260502042119 52 71 3.5 5.2 0.00 0.00 0.00 80 1015.4
20260502041120 53 47 3.5 6.1 0.00 0.00 0.00 81 1015.4
20260502040149 53 30 3.5 6.1 0.00 0.00 0.00 82 1015.4
20260502035619 53 36 3.5 6.1 0.00 0.00 0.00 82 1014.7
20260502035119 54 59 2.6 6.1 0.00 0.00 0.00 81 1014.9
20260502034619 54 67 3.5 4.3 0.00 0.00 0.00 81 1014.9
20260502034119 55 57 2.6 4.3 0.00 0.00 0.00 80 1014.9
20260502033619 55 44 3.5 4.3 0.00 0.00 0.00 80 1014.8
20260502033119 55 42 2.6 3.5 0.00 0.00 0.00 79 1014.8
20260502032619 56 37 1.7 3.5 0.00 0.00 0.00 78 1015.0
20260502032119 56 307 1.7 2.6 0.00 0.00 0.00 78 1014.8
20260502031619 57 236 0.0 1.7 0.00 0.00 0.00 77 1014.8
20260502031119 57 236 0.0 1.7 0.00 0.00 0.00 76 1014.9
20260502030648 58 236 1.7 2.6 0.00 0.00 0.00 76 1015.1
20260502030148 58 236 0.9 2.6 0.00 0.00 0.00 75 1015.0
20260502025649 59 236 1.7 2.6 0.00 0.00 0.00 74 1014.1
20260502025148 60 235 1.7 2.6 0.00 0.00 0.00 73 1014.0
20260502024648 60 235 0.0 0.0 0.00 0.00 0.00 72 1013.9
20260502024148 61 235 0.0 0.0 0.00 0.00 0.00 72 1014.1
20260502023648 62 235 0.0 0.0 0.00 0.00 0.00 72 1014.0
20260502022648 63 235 0.0 2.6 0.00 0.00 0.00 71 1014.2
20260502022148 63 235 0.0 2.6 0.00 0.00 0.00 70 1014.2
20260502021148 64 237 1.7 5.2 0.00 0.00 0.00 69 1014.2
20260502020648 65 234 0.0 5.2 0.00 0.00 0.00 68 1014.5
20260502020148 65 237 0.9 5.2 0.00 0.00 0.00 67 1014.4
20260502015648 65 281 0.0 4.3 0.00 0.00 0.00 66 1013.1
20260502014648 66 245 3.5 7.0 0.00 0.00 0.00 65 1013.1
20260502014148 67 247 0.9 7.0 0.00 0.00 0.00 64 1013.4
20260502013648 67 249 0.0 6.1 0.00 0.00 0.00 64 1013.3
20260502013148 67 265 1.7 6.1 0.00 0.00 0.00 63 1013.2
20260502012648 68 253 1.7 7.0 0.00 0.00 0.00 63 1013.3
20260502012148 68 242 3.5 8.7 0.00 0.00 0.00 62 1013.2
20260502011148 69 233 5.2 7.8 0.00 0.00 0.00 60 1013.4
20260502010648 69 244 1.7 8.7 0.00 0.00 0.00 59 1013.5
20260502010148 70 213 3.5 8.7 0.00 0.00 0.00 58 1013.5
20260502005647 71 194 5.2 7.0 0.00 0.00 0.00 57 1013.3
20260502005147 71 250 6.1 7.8 0.00 0.00 0.00 56 1013.3
20260502004647 72 242 1.7 7.8 0.00 0.00 0.00 55 1013.5
20260502004148 72 234 2.6 7.8 0.00 0.00 0.00 54 1013.4
20260502003648 73 229 0.0 7.8 0.00 0.00 0.00 54 1013.4
20260502003148 73 245 6.1 7.8 0.00 0.00 0.00 53 1013.4
20260502001647 74 243 2.6 8.7 0.00 0.00 0.00 52 1013.7
20260502001147 74 243 3.5 8.7 0.00 0.00 0.00 51 1013.6
20260502000647 75 173 1.7 8.7 0.00 0.00 0.00 50 1013.7
20260502000147 75 198 5.2 9.6 0.00 0.00 0.00 50 1013.7
20260501235647 76 235 4.3 9.6 0.00 0.00 0.00 49 1014.0
20260501235147 76 257 4.3 7.8 0.00 0.00 0.00 48 1013.9
20260501234647 76 207 2.6 9.6 0.00 0.00 0.00 47 1013.9
20260501234147 77 252 1.7 9.6 0.00 0.00 0.00 47 1013.8
20260501233647 77 219 3.5 7.0 0.00 0.00 0.00 46 1013.8
20260501233147 77 228 5.2 9.6 0.00 0.00 0.00 46 1013.8
20260501232646 77 187 3.5 9.6 0.00 0.00 0.00 45 1013.8
20260501232146 77 216 6.1 9.6 0.00 0.00 0.00 44 1013.9
20260501231647 77 210 5.2 9.6 0.00 0.00 0.00 44 1013.9
20260501231146 78 194 2.6 9.6 0.00 0.00 0.00 44 1014.1
20260501230646 78 198 0.9 9.6 0.00 0.00 0.00 44 1014.3
20260501230146 78 263 0.9 8.7 0.00 0.00 0.00 43 1014.2
20260501225647 78 233 7.0 8.7 0.00 0.00 0.00 44 1014.3
20260501225146 78 261 0.0 7.8 0.00 0.00 0.00 43 1014.3
20260501224646 78 92 0.0 7.8 0.00 0.00 0.00 40 1014.5
20260501223646 78 205 1.7 8.7 0.00 0.00 0.00 44 1014.6
20260501222646 77 180 3.5 10.4 0.00 0.00 0.00 44 1014.7
20260501222146 77 179 1.7 10.4 0.00 0.00 0.00 43 1014.9
20260501221646 78 195 4.3 10.4 0.00 0.00 0.00 43 1014.9
20260501220646 78 201 0.9 10.4 0.00 0.00 0.00 43 1015.0
20260501215645 78 211 2.6 9.6 0.00 0.00 0.00 42 1015.1